EW8016 Weather Reports


Display with metric or nautical units.
time (UTC)temp
F
wind
direction
speed
MPH
gust
MPH
rain 1hr
in
rain 24hr
in
rain mn
in
humidity
%
barometer
mb
20260505173003 53 30 4.0 10.0 0.00 0.59 0.42 86 1009.5
20260505172720 53 23 4.0 10.0 0.00 0.59 0.42 86 1009.5
20260505172004 53 11 4.0 11.0 0.00 0.59 0.42 86 1009.5
20260505171503 53 10 4.0 11.0 0.00 0.59 0.42 86 1009.4
20260505171005 53 11 3.0 9.0 0.00 0.59 0.42 87 1009.6
20260505170506 53 20 4.0 9.0 0.00 0.59 0.42 87 1009.5
20260505170010 53 23 3.0 12.0 0.00 0.59 0.42 87 1009.5
20260505165505 53 8 3.0 12.0 0.00 0.59 0.42 86 1009.6
20260505165008 53 360 3.0 9.0 0.00 0.59 0.42 86 1009.6
20260505164720 53 3 4.0 9.0 0.00 0.59 0.42 86 1009.6
20260505164003 53 18 3.0 9.0 0.00 0.59 0.42 87 1009.7
20260505163508 53 25 3.0 9.0 0.00 0.59 0.42 86 1009.7
20260505163003 53 18 3.0 10.0 0.00 0.59 0.42 87 1009.7
20260505162720 53 18 3.0 10.0 0.00 0.59 0.42 87 1009.8
20260505162004 53 26 4.0 11.0 0.00 0.59 0.42 87 1009.7
20260505161505 53 26 3.0 9.0 0.00 0.59 0.42 87 1009.7
20260505161005 54 25 3.0 9.0 0.00 0.59 0.42 87 1009.8
20260505160505 54 28 3.0 7.0 0.00 0.59 0.42 87 1009.8
20260505153218 54 26 3.0 12.0 0.00 0.59 0.42 86 1010.0
20260505152721 54 16 3.0 12.0 0.00 0.59 0.42 86 1010.0
20260505152003 54 23 3.0 9.0 0.00 0.59 0.42 86 1010.0
20260505151503 54 27 4.0 9.0 0.00 0.59 0.42 86 1010.0
20260505151218 54 30 3.0 9.0 0.00 0.59 0.42 86 1010.1
20260505150503 54 20 4.0 11.0 0.00 0.59 0.42 86 1010.0
20260505140503 54 45 3.0 8.0 0.00 0.59 0.42 86 1010.3
20260505130219 53 35 3.0 9.0 0.00 0.59 0.42 87 1010.6
20260505124503 53 40 2.0 4.0 0.00 0.59 0.42 89 1010.8
20260505124003 53 46 2.0 6.0 0.00 0.59 0.42 88 1010.7
20260505123718 53 43 2.0 6.0 0.00 0.59 0.42 88 1010.8
20260505123005 53 44 2.0 6.0 0.00 0.59 0.42 89 1010.8
20260505122506 53 51 3.0 8.0 0.00 0.59 0.42 88 1011.0
20260505122005 53 52 3.0 9.0 0.00 0.59 0.42 88 1011.0
20260505121504 53 57 2.0 9.0 0.00 0.59 0.42 88 1011.0
20260505121003 53 45 2.0 7.0 0.00 0.59 0.42 89 1011.0
20260505120504 53 45 3.0 12.0 0.00 0.59 0.42 89 1011.0
20260505120005 53 45 3.0 12.0 0.00 0.59 0.42 89 1011.0
20260505115505 53 32 3.0 12.0 0.00 0.59 0.42 90 1011.0
20260505115003 52 24 2.0 12.0 0.00 0.59 0.42 91 1011.0
20260505114504 52 39 3.0 7.0 0.00 0.59 0.42 91 1011.1
20260505114003 52 51 2.0 7.0 0.00 0.59 0.42 91 1011.0
20260505113718 52 48 2.0 7.0 0.00 0.59 0.42 91 1011.0
20260505113003 52 42 2.0 9.0 0.00 0.59 0.42 92 1011.0
20260505112503 52 44 3.0 9.0 0.00 0.59 0.42 92 1011.1
20260505112007 52 53 3.0 9.0 0.00 0.59 0.42 92 1011.2
20260505111503 52 55 3.0 8.0 0.00 0.59 0.42 93 1011.2
20260505111004 51 48 3.0 10.0 0.00 0.59 0.42 93 1011.1
20260505110504 51 49 3.0 10.0 0.00 0.59 0.42 93 1011.2
20260505102216 50 42 3.0 9.0 0.00 0.59 0.42 96 1011.3
20260505101507 50 37 3.0 10.0 0.00 0.59 0.42 96 1011.4
20260505101216 50 32 3.0 10.0 0.00 0.59 0.42 96 1011.3
20260505100507 49 35 4.0 12.0 0.00 0.59 0.42 96 1011.5
20260505100003 49 37 4.0 12.0 0.00 0.59 0.42 96 1011.5
20260505095505 49 35 4.0 11.0 0.00 0.59 0.42 96 1011.6
20260505095222 49 39 4.0 14.0 0.00 0.59 0.42 96 1011.6
20260505094503 49 37 4.0 14.0 0.00 0.59 0.42 96 1011.7
20260505094218 49 30 4.0 12.0 0.00 0.59 0.42 96 1011.7
20260505093719 49 31 4.0 12.0 0.00 0.59 0.42 96 1011.6
20260505093003 49 30 4.0 13.0 0.00 0.59 0.42 96 1011.6
20260505092507 48 36 3.0 11.0 0.00 0.59 0.42 96 1011.6
20260505092003 48 44 3.0 11.0 0.00 0.59 0.42 96 1011.6
20260505091503 48 44 4.0 10.0 0.00 0.59 0.42 96 1011.6
20260505091006 48 38 4.0 11.0 0.00 0.59 0.42 96 1011.6
20260505090719 48 39 4.0 11.0 0.00 0.59 0.42 96 1011.6
20260505090005 48 33 4.0 10.0 0.01 0.59 0.42 96 1011.6
20260505085721 48 30 4.0 10.0 0.01 0.59 0.42 96 1011.7
20260505085218 48 30 4.0 12.0 0.01 0.59 0.42 96 1011.7
20260505084503 48 34 3.0 11.0 0.01 0.59 0.42 96 1011.7
20260505084004 48 34 2.0 9.0 0.01 0.59 0.42 97 1011.6
20260505083505 48 34 3.0 10.0 0.01 0.59 0.42 96 1011.6
20260505083005 48 32 4.0 10.0 0.02 0.59 0.42 96 1011.7
20260505082503 48 26 4.0 10.0 0.02 0.59 0.42 96 1011.8
20260505082217 48 30 3.0 10.0 0.02 0.59 0.42 96 1011.7
20260505081505 48 26 2.0 7.0 0.02 0.59 0.42 96 1011.8
20260505081004 48 31 3.0 9.0 0.02 0.59 0.42 96 1011.8
20260505080719 48 38 3.0 9.0 0.02 0.59 0.42 96 1011.8
20260505080006 48 34 3.0 9.0 0.02 0.58 0.41 96 1011.8
20260505075505 48 30 3.0 11.0 0.02 0.58 0.41 96 1011.8
20260505075007 48 34 4.0 11.0 0.02 0.58 0.41 96 1011.8
20260505074716 48 35 4.0 14.0 0.02 0.58 0.41 96 1011.8
20260505074219 48 36 4.0 14.0 0.02 0.58 0.41 96 1011.8
20260505073508 48 29 4.0 13.0 0.02 0.58 0.41 96 1011.7
20260505073007 48 17 4.0 11.0 0.02 0.57 0.40 96 1011.8
20260505072503 47 13 3.0 11.0 0.02 0.57 0.40 96 1011.8
20260505072003 48 17 3.0 9.0 0.02 0.57 0.40 96 1011.9
20260505071504 48 23 3.0 11.0 0.02 0.57 0.40 96 1012.0
20260505071010 48 24 2.0 11.0 0.01 0.57 0.39 96 1012.0
20260505070504 48 18 2.0 6.0 0.01 0.57 0.39 96 1012.0
20260505070005 48 26 3.0 6.0 0.01 0.57 0.39 96 1012.1
20260505065503 48 24 2.0 8.0 0.00 0.56 0.39 96 1012.1
20260505065004 48 29 2.0 8.0 0.00 0.56 0.39 96 1012.1
20260505064503 47 32 3.0 8.0 0.00 0.56 0.39 96 1012.0
20260505064003 47 26 3.0 9.0 0.00 0.56 0.39 96 1012.0
20260505063504 47 29 3.0 9.0 0.00 0.56 0.39 96 1012.1
20260505063004 48 35 3.0 9.0 0.00 0.56 0.39 96 1012.1
20260505062718 48 33 2.0 7.0 0.00 0.56 0.39 96 1012.0
20260505062003 47 25 2.0 9.0 0.00 0.56 0.39 96 1012.0
20260505061503 47 29 3.0 9.0 0.00 0.56 0.39 96 1012.0
20260505061004 47 32 3.0 9.0 0.00 0.56 0.39 96 1012.0
20260505060504 47 34 3.0 9.0 0.00 0.56 0.39 96 1011.9
20260505060003 47 32 3.0 11.0 0.00 0.56 0.39 96 1011.8
20260505055503 47 35 4.0 11.0 0.00 0.56 0.39 96 1011.8
20260505055004 47 35 4.0 11.0 0.00 0.56 0.39 96 1011.7
20260505054503 47 31 4.0 11.0 0.00 0.56 0.39 96 1011.8
20260505054008 47 29 3.0 11.0 0.00 0.56 0.39 96 1011.8
20260505053503 48 25 3.0 8.0 0.00 0.56 0.39 96 1011.8
20260505053003 48 32 3.0 5.0 0.00 0.56 0.39 96 1011.9
20260505052503 48 33 3.0 10.0 0.00 0.56 0.39 96 1011.9
20260505052003 48 22 3.0 10.0 0.00 0.56 0.39 96 1012.0
20260505051503 48 23 3.0 10.0 0.00 0.56 0.39 96 1011.8
20260505051006 48 25 3.0 10.0 0.00 0.56 0.39 96 1011.8
20260505050505 48 29 2.0 8.0 0.00 0.56 0.39 96 1011.9
20260505041503 48 32 4.0 10.0 0.00 0.56 0.39 96 1011.7
20260505041005 48 30 3.0 9.0 0.00 0.56 0.39 96 1011.7
20260505040504 48 26 3.0 8.0 0.00 0.56 0.39 96 1011.7
20260505040004 48 23 3.0 10.0 0.00 0.56 0.39 96 1011.8
20260505035719 48 20 3.0 10.0 0.00 0.56 0.39 96 1011.7
20260505035218 48 24 3.0 10.0 0.01 0.56 0.39 96 1011.8
20260505034508 48 33 3.0 11.0 0.01 0.56 0.39 96 1011.8
20260505034003 48 29 4.0 11.0 0.01 0.56 0.39 96 1011.8
20260505033503 48 34 4.0 13.0 0.01 0.56 0.39 96 1011.8
20260505033003 48 40 4.0 13.0 0.01 0.56 0.39 96 1011.8
20260505032503 48 36 4.0 11.0 0.01 0.56 0.39 96 1011.9
20260505032004 48 33 4.0 11.0 0.02 0.56 0.39 96 1011.9
20260505031507 48 29 3.0 12.0 0.02 0.56 0.39 96 1012.0
20260505031004 48 30 3.0 12.0 0.02 0.56 0.39 96 1011.9
20260505030506 49 30 3.0 10.0 0.02 0.56 0.39 96 1011.9
20260505030218 49 25 3.0 11.0 0.02 0.56 0.39 96 1012.0
20260505025505 49 18 4.0 11.0 0.01 0.55 0.39 96 1012.0
20260505025004 49 11 4.0 11.0 0.01 0.55 0.38 96 1012.1
20260505024503 49 13 3.0 11.0 0.01 0.55 0.38 96 1012.1
20260505024004 49 21 3.0 10.0 0.02 0.55 0.38 96 1012.1
20260505023505 49 37 2.0 9.0 0.02 0.55 0.38 96 1012.0
20260505023004 49 28 3.0 9.0 0.05 0.55 0.38 96 1012.0
20260505022718 49 18 3.0 9.0 0.06 0.55 0.38 96 1012.0
20260505022003 49 15 3.0 10.0 0.09 0.54 0.37 96 1012.1
20260505021505 49 24 2.0 10.0 0.09 0.54 0.37 96 1012.1
20260505021005 49 20 3.0 11.0 0.10 0.54 0.37 96 1012.1
20260505020504 49 18 3.0 11.0 0.11 0.54 0.37 96 1012.2
20260505020219 50 21 4.0 15.0 0.12 0.54 0.37 96 1012.2
20260505015503 50 21 4.0 15.0 0.13 0.54 0.37 96 1012.2
20260505015221 50 15 3.0 12.0 0.14 0.54 0.37 96 1012.1
20260505014505 50 16 3.0 9.0 0.17 0.54 0.37 96 1012.1
20260505014006 50 21 3.0 9.0 0.18 0.54 0.36 96 1012.1
20260505013508 50 21 3.0 8.0 0.19 0.53 0.35 96 1012.2
20260505013003 50 13 3.0 8.0 0.19 0.50 0.33 96 1012.3
20260505012718 50 13 3.0 8.0 0.18 0.49 0.31 96 1012.3
20260505012006 51 12 2.0 7.0 0.17 0.46 0.29 96 1012.2
20260505011505 51 3 4.0 11.0 0.17 0.45 0.28 96 1012.3
20260505011003 51 6 4.0 11.0 0.18 0.44 0.27 96 1012.2
20260505010506 51 6 3.0 10.0 0.19 0.43 0.26 96 1012.3
20260505010007 51 9 2.0 5.0 0.19 0.43 0.25 96 1012.3
20260505005504 51 8 2.0 8.0 0.19 0.42 0.24 96 1012.3
20260505005217 51 8 2.0 8.0 0.17 0.40 0.23 96 1012.3
20260505004504 51 17 2.0 8.0 0.15 0.37 0.20 96 1012.4
20260505004005 51 16 2.0 8.0 0.14 0.35 0.18 96 1012.4
20260505003503 51 6 3.0 10.0 0.13 0.34 0.17 96 1012.4
20260505003003 51 360 3.0 10.0 0.11 0.31 0.14 95 1012.4
20260505002503 52 6 2.0 6.0 0.09 0.30 0.13 96 1012.4
20260505002003 52 9 2.0 5.0 0.09 0.29 0.12 96 1012.5
20260505001719 52 10 2.0 8.0 0.08 0.28 0.10 96 1012.5
20260505001003 52 23 2.0 8.0 0.06 0.26 0.09 95 1012.5
20260505000504 52 10 2.0 8.0 0.05 0.24 0.07 96 1012.6
20260505000219 52 5 2.0 8.0 0.05 0.24 0.07 95 1012.5
20260504235503 52 16 2.0 9.0 0.03 0.23 0.06 96 1012.6
20260504235218 52 23 3.0 9.0 0.03 0.23 0.06 96 1012.6
20260504234503 52 27 3.0 9.0 0.02 0.22 0.05 95 1012.6
20260504234220 52 27 3.0 9.0 0.02 0.21 0.04 95 1012.6
20260504233503 52 23 2.0 7.0 0.02 0.21 0.04 95 1012.6
20260504233008 52 27 3.0 9.0 0.02 0.20 0.03 95 1012.7
20260504232503 52 24 3.0 9.0 0.02 0.21 0.03 95 1012.7
20260504232003 53 21 3.0 9.0 0.02 0.21 0.03 95 1012.8
20260504231506 53 21 3.0 8.0 0.02 0.20 0.02 95 1012.9
20260504231003 53 19 3.0 9.0 0.02 0.20 0.02 95 1012.9
20260504230719 53 19 3.0 9.0 0.02 0.20 0.02 95 1012.9
20260504230218 53 20 3.0 9.0 0.02 0.20 0.02 95 1012.9
20260504225503 53 24 4.0 12.0 0.03 0.20 0.02 95 1012.9
20260504225005 53 23 4.0 12.0 0.03 0.20 0.02 94 1013.0
20260504224504 54 24 5.0 11.0 0.03 0.20 0.02 95 1013.0
20260504224003 54 25 4.0 11.0 0.03 0.20 0.02 95 1013.1
20260504223503 54 25 3.0 9.0 0.03 0.20 0.02 95 1013.0
20260504223003 54 26 4.0 9.0 0.04 0.20 0.02 95 1013.0
20260504222503 55 25 3.0 9.0 0.03 0.19 0.01 95 1012.9
20260504222005 55 26 3.0 9.0 0.04 0.19 0.01 95 1013.1
20260504221506 55 23 3.0 10.0 0.05 0.19 0.01 95 1013.0
20260504221003 55 26 4.0 10.0 0.05 0.19 0.01 94 1013.0
20260504220505 56 29 3.0 11.0 0.05 0.19 0.01 95 1013.0
20260504220007 56 25 3.0 11.0 0.05 0.18 0.00 95 1013.0
20260504215503 56 18 3.0 8.0 0.05 0.17 0.17 95 1013.0
20260504215004 56 18 3.0 8.0 0.05 0.17 0.17 95 1013.0
20260504214504 57 26 2.0 8.0 0.05 0.17 0.17 94 1013.1
20260504214220 57 31 2.0 9.0 0.06 0.17 0.17 94 1013.1
20260504213503 57 28 3.0 9.0 0.06 0.17 0.17 94 1013.1
20260504213007 57 28 2.0 6.0 0.06 0.16 0.16 94 1013.2
20260504212513 57 28 2.0 5.0 0.06 0.16 0.16 94 1013.2
20260504212006 57 28 1.0 4.0 0.06 0.15 0.15 94 1013.2
20260504211503 57 38 1.0 3.0 0.06 0.14 0.14 94 1013.3
20260504211003 57 37 1.0 4.0 0.08 0.14 0.14 94 1013.3
20260504210504 58 33 2.0 8.0 0.09 0.14 0.14 94 1013.3
20260504210005 58 35 2.0 8.0 0.10 0.13 0.13 93 1013.3
20260504205503 58 32 2.0 5.0 0.10 0.13 0.13 93 1013.3
20260504205217 58 26 1.0 5.0 0.10 0.13 0.13 93 1013.3
20260504204505 58 32 2.0 8.0 0.11 0.13 0.13 93 1013.3
20260504204003 58 28 2.0 8.0 0.10 0.12 0.12 93 1013.3
20260504203718 58 24 2.0 8.0 0.09 0.11 0.11 93 1013.3
20260504203005 59 45 2.0 6.0 0.09 0.10 0.10 92 1013.3
20260504202505 59 46 2.0 6.0 0.09 0.09 0.09 92 1013.4
20260504202003 59 38 2.0 7.0 0.09 0.09 0.09 92 1013.4
20260504201503 59 33 3.0 8.0 0.07 0.08 0.08 92 1013.3
20260504201008 59 31 2.0 8.0 0.06 0.06 0.06 91 1013.4
20260504200503 59 25 2.0 7.0 0.04 0.05 0.05 91 1013.3
20260504200005 60 15 2.0 8.0 0.02 0.03 0.03 91 1013.3
20260504195503 60 16 3.0 8.0 0.02 0.02 0.02 90 1013.3
20260504195003 60 18 2.0 8.0 0.02 0.02 0.02 90 1013.2
20260504194718 60 22 2.0 7.0 0.01 0.02 0.02 90 1013.2
20260504194217 60 31 2.0 7.0 0.01 0.02 0.02 89 1013.2
20260504193505 60 35 2.0 6.0 0.01 0.02 0.02 89 1013.2
20260504193221 60 37 2.0 6.0 0.00 0.01 0.01 89 1013.2
20260504192505 60 43 3.0 8.0 0.00 0.01 0.01 88 1013.1
20260504192006 61 37 3.0 8.0 0.00 0.01 0.01 88 1013.0
20260504191506 61 32 3.0 9.0 0.00 0.01 0.01 88 1013.0
20260504191005 61 30 3.0 9.0 0.00 0.01 0.01 88 1013.1
20260504190504 61 31 4.0 13.0 0.00 0.01 0.01 88 1013.0
20260504190003 61 33 3.0 13.0 0.00 0.01 0.01 87 1013.0
20260504185503 61 37 2.0 7.0 0.00 0.01 0.01 87 1013.0
20260504185005 61 36 2.0 8.0 0.00 0.01 0.01 87 1012.9
20260504184504 61 26 2.0 9.0 0.00 0.01 0.01 87 1012.7
20260504184014 62 19 2.0 9.0 0.00 0.01 0.01 87 1012.7
20260504183508 62 28 2.0 6.0 0.00 0.01 0.01 86 1012.7
20260504183216 62 39 2.0 7.0 0.00 0.01 0.01 86 1012.6
20260504182505 62 42 3.0 9.0 0.00 0.01 0.01 86 1012.7
20260504182005 62 47 3.0 9.0 0.00 0.01 0.01 86 1012.8
20260504181503 62 48 3.0 9.0 0.00 0.01 0.01 86 1012.7
20260504181005 63 40 3.0 9.0 0.00 0.01 0.01 85 1012.6
20260504180505 63 32 3.0 11.0 0.00 0.01 0.01 84 1012.6
20260504180003 63 38 2.0 11.0 0.00 0.01 0.01 84 1012.6
20260504175505 63 43 2.0 8.0 0.00 0.01 0.01 84 1012.6
20260504175003 63 38 3.0 8.0 0.00 0.01 0.01 83 1012.6
20260504174506 64 40 2.0 7.0 0.00 0.01 0.01 83 1012.6
20260504174004 64 42 2.0 7.0 0.00 0.01 0.01 83 1012.6
20260504173505 64 45 2.0 6.0 0.00 0.01 0.01 83 1012.6
20260504173220 64 45 2.0 6.0 0.00 0.01 0.01 82 1012.7